Regional Weather Roundup
Issued by NWS

Home | Current Version | Previous Version | Text Only | Print | Product List | Glossary Off
Versions: 1 2 3 4 5 6 7 8 9 10 11 12 13 14 15 16 17 18 19 20 21 22 23 24 25 26 27 28 29 30 31 32 33 34 35 36 37 38 39 40 41 42 43 44 45 46 47 48 49 50

000
ASUS43 KDMX 261907
RWRIA

WEATHER ROUNDUP FOR IOWA
NATIONAL WEATHER SERVICE DES MOINES IA
100 PM CST WED NOV 26 2014

NOTE: "FAIR" INDICATES FEW OR NO CLOUDS BELOW 12,000 FEET WITH NO
SIGNIFICANT WEATHER AND/OR OBSTRUCTIONS TO VISIBILITY.

* - THESE STATIONS ARE NOT NWS STATIONS...THUS NOT UNDER NWS
QUALITY CONTROL.  THEY ALSO DO NOT REPORT WEATHER SUCH
AS PRECIPITATION OR FOG.

IAZ001>003-012>014-020>022-031>034-043>046-262000-
   NORTHWEST IOWA

CITY           SKY/WX    TMP DP  RH WIND       PRES   REMARKS
CARROLL *      CLOUDY    28  25  86 N21G26    30.05R WCI  15
CHEROKEE *     CLOUDY    27  23  86 N21G28    30.13R FOG     WCI  13
DENISON *      LGT SNOW  28  25  86 N21G29    30.08R WCI  15
LE MARS *      PTSUNNY   25  21  86 N17G28    30.19R WCI  11
ORANGE CITY *  MOSUNNY   27  21  80 N15       30.17R WCI  15
SHELDON *      MIX PCPN  23  19  86 N22       30.16R WCI   8
SIOUX CITY     CLOUDY    28  21  75 N24G31    30.19R WCI  14
SPENCER        LGT SNOW  26  20  77 N23G29    30.13R WCI  11
STORM LAKE *   MIX PCPN  25  21  86 N22G30    30.10R WCI  10
$$

IAZ055>058-069>071-079>083-090>094-262000-
   SOUTHWEST IOWA

CITY           SKY/WX    TMP DP  RH WIND       PRES   REMARKS
ATLANTIC *     CLOUDY    30  28  93 N24G30    30.03R WCI  16
AUDUBON *      SUNNY     28  23  80 N17G23    30.05R WCI  16
CLARINDA *     CLOUDY    34  30  86 NW24G33   30.05R WCI  21
COUNCIL BLFS * CLOUDY    30  27  86 N24G33    30.07R WCI  16
CRESTON *      CLOUDY    28  28 100 N16G25    29.97R FOG     WCI  17
HARLAN  *      LGT SNOW  30  28  93 N21G31    30.10R WCI  17
LAMONI         CLOUDY    32  31  96 N16       29.93R WCI  21
RED OAK *      CLOUDY    32  28  86 N22G32    30.05R WCI  19
SHENANDOAH *   CLOUDY    34  28  80 N21G35    30.06R WCI  22
$$

IAZ047>049-059>061-072>074-084-262000-
   CENTRAL IOWA

CITY           SKY/WX    TMP DP  RH WIND       PRES   REMARKS
AMES           LGT SNOW  30  26  85 NE14      30.02R VSB 3/4 WCI  19
ANKENY *       LGT SNOW  30  28  93 N9        30.00R WCI  22
CHARITON *     MIX PCPN  32  30  93 N9        29.94R WCI  24
DES MOINES     FLURRIES  32  27  81 NE9       29.99R WCI  24
GRINNELL*      LGT SNOW  30  28  93 NE17      29.98R VSB 1   WCI  18
KNOXVILLE *    LGT SNOW  32  28  86 E8        29.95R WCI  25
MARSHALLTOWN   LGT SNOW  30  26  85 NE13      30.00R FOG     WCI  20
PELLA *        LGT SNOW  32  28  86 E8G16     29.98R WCI  25
PERRY *        LGT RAIN  30  28  93 N17       30.02R WCI  18
$$

IAZ004>006-015-016-023>025-035-036-262000-
   NORTH CENTRAL IOWA

CITY           SKY/WX    TMP DP  RH WIND       PRES   REMARKS
ALGONA *       MIX PCPN  25  23  93 N18       30.10R WCI  11
CLARION *      LGT SNOW  28  28 100 N12       30.07R VSB 3/4 WCI  18
ESTHERVILLE    SNOW      23  21  92 N20       30.12R VSB 1/2 WCI   8
FORT DODGE *   CLOUDY    27  21  80 N8G17     30.07R WCI  18
MASON CITY     LGT SNOW  28  24  85 N14       30.09R FOG     WCI  17
FOREST CITY *  LGT SNOW  28  28 100 N15       30.09R WCI  17
IOWA FALLS *   LGT SNOW  30  25  80 NE8       30.04R WCI  23
$$

IAZ007>011-017>019-026>030-037>042-050>054-066-262000-
   NORTHEAST IOWA

CITY           SKY/WX    TMP DP  RH WIND       PRES   REMARKS
CEDAR RAPIDS   CLOUDY    29  26  89 E14       30.01R WCI  18
CHARLES CITY * LGT SNOW  28  25  86 NE12      30.08R WCI  18
CLINTON *      CLOUDY    27  21  80 SE14G20   30.09S WCI  15
DECORAH *      PTSUNNY   28  21  74 NE7       30.08R WCI  21
DUBUQUE        PTSUNNY   25  22  88 E9        30.06S FOG     WCI  15
MONTICELLO *   MOSUNNY   28  25  86 E8        30.05S WCI  20
OELWEIN *      MOSUNNY   30  25  80 E9        30.05R WCI  22
WATERLOO       LGT SNOW  30  25  81 E9        30.05R WCI  22
$$

IAZ064-065-067-068-078-262000-
   EAST CENTRAL IOWA

CITY           SKY/WX    TMP DP  RH WIND       PRES   REMARKS
DAVENPORT      CLOUDY    27  22  81 E13       30.06S WCI  16
IOWA CITY      CLOUDY    29  24  82 E12       30.04S WCI  19
MT. PLEASANT * LGT SNOW  32  28  86 E13       29.98S VSB 3/4 WCI  22
MUSCATINE *    SUNNY     32  27  80 E13       30.04S WCI  22
QUAD CITIES    CLOUDY    29  24  82 E15       30.05F WCI  18
$$

IAZ062-063-075>077-085>089-095>099-262000-
   SOUTHEAST IOWA

CITY           SKY/WX    TMP DP  RH WIND       PRES   REMARKS
BURLINGTON     LGT SNOW  32  29  88 E14G23    29.98F FOG     WCI  22
FAIRFIELD *    LGT SNOW  30  28  93 E14       29.96S WCI  20
FORT MADISON * LGT SNOW  34  30  86 E7        29.98R VSB 1   WCI  28
KEOKUK *       SNOW      32  32 100 E8        29.96S VSB 1/2 WCI  25
OSKALOOSA *    LGT SNOW  30  28  93 E10       29.96R WCI  21
CENTERVILLE *  FLURRIES  32  32 100 E5        29.92R WCI  27
OTTUMWA        LGT SNOW  31  28  89 E12       29.95R FOG     WCI  22
WASHINGTON *   SUNNY     30  30 100 E15       29.99R FOG     WCI  19
$$

ABBREVIATIONS USED IN REMARKS
   TC - TEMPERATURES IN CELSIUS
  WCI - WIND CHILL INDEX
   HX - HEAT INDEX
  VSB - VISIBILITY
$$




USA.gov is the U.S. government's official web portal to all federal, state and local government web resources and services.